When you browse on this site, cookies collect data to enhance your experience and personalize the content and advertising you see.
Visit our Privacy Policy to learn more. By continuing to use the site, you agree to this use of cookies and data.

Stündliche Wetter Zorya

Heute, 5 August, Mittwoch

Zeit Temperatur Niederschläge Wind Luftdruck Luftfeuchtigkeit
00:00 +21°C° 0 mm 2 m/S 750 mmHg 48%
01:00 +20°C° 0 mm 2 m/S 750 mmHg 52%
02:00 +19°C° 0 mm 2 m/S 750 mmHg 55%
03:00 +19°C° 0 mm 2 m/S 750 mmHg 57%
04:00 +19°C° 0 mm 2 m/S 750 mmHg 59%
05:00 +20°C° 0 mm 1 m/S 750 mmHg 62%
06:00 +21°C° 0 mm 2 m/S 751 mmHg 57%
07:00 +24°C° 0 mm 2 m/S 751 mmHg 51%
08:00 +27°C° 0 mm 3 m/S 751 mmHg 46%
09:00 +28°C° 0 mm 3 m/S 751 mmHg 41%
10:00 +30°C° 0 mm 3 m/S 751 mmHg 37%
11:00 +32°C° 0 mm 4 m/S 751 mmHg 32%
12:00 +33°C° 0 mm 4 m/S 751 mmHg 31%
13:00 +33°C° 0 mm 4 m/S 751 mmHg 29%
14:00 +33°C° 0 mm 4 m/S 751 mmHg 28%
15:00 +33°C° 0 mm 4 m/S 751 mmHg 29%
16:00 +32°C° 0 mm 4 m/S 751 mmHg 30%
17:00 +32°C° 0 mm 4 m/S 751 mmHg 31%
18:00 +29°C° 0 mm 4 m/S 751 mmHg 36%
19:00 +27°C° 0 mm 4 m/S 751 mmHg 42%
20:00 +24°C° 0 mm 3 m/S 751 mmHg 47%
21:00 +24°C° 0 mm 3 m/S 751 mmHg 49%
22:00 +22°C° 0 mm 3 m/S 752 mmHg 52%
23:00 +21°C° 0 mm 3 m/S 752 mmHg 55%

Morgen, 6 August, Donnerstag

Zeit Temperatur Niederschläge Wind Luftdruck Luftfeuchtigkeit
00:00 +21°C° 0 mm 3 m/S 752 mmHg 58%
01:00 +20°C° 0 mm 3 m/S 752 mmHg 61%
02:00 +19°C° 0 mm 2 m/S 753 mmHg 64%
03:00 +19°C° 0 mm 3 m/S 753 mmHg 66%
04:00 +19°C° 0 mm 3 m/S 753 mmHg 69%
05:00 +18°C° 0 mm 3 m/S 753 mmHg 72%
06:00 +20°C° 0 mm 3 m/S 753 mmHg 66%
07:00 +22°C° 0 mm 4 m/S 753 mmHg 60%
08:00 +25°C° 0 mm 4 m/S 754 mmHg 54%
09:00 +27°C° 0 mm 5 m/S 754 mmHg 49%
10:00 +28°C° 0 mm 5 m/S 754 mmHg 44%
11:00 +30°C° 0 mm 5 m/S 754 mmHg 39%
12:00 +30°C° 0 mm 5 m/S 753 mmHg 38%
13:00 +32°C° 0 mm 5 m/S 753 mmHg 36%
14:00 +33°C° 0 mm 5 m/S 753 mmHg 35%
15:00 +33°C° 0 mm 5 m/S 753 mmHg 35%
16:00 +32°C° 0 mm 5 m/S 753 mmHg 36%
17:00 +32°C° 0 mm 5 m/S 753 mmHg 37%
18:00 +29°C° 0 mm 5 m/S 753 mmHg 42%
19:00 +27°C° 0 mm 5 m/S 753 mmHg 48%
20:00 +25°C° 0 mm 4 m/S 753 mmHg 53%
21:00 +25°C° 0 mm 4 m/S 753 mmHg 56%
22:00 +23°C° 0 mm 4 m/S 753 mmHg 59%
23:00 +23°C° 0 mm 4 m/S 754 mmHg 61%

übermorgen, 7 August, Freitag

Zeit Temperatur Niederschläge Wind Luftdruck Luftfeuchtigkeit
00:00 +22°C° 0 mm 4 m/S 754 mmHg 65%
01:00 +21°C° 0 mm 4 m/S 754 mmHg 68%
02:00 +21°C° 0 mm 4 m/S 754 mmHg 72%
03:00 +20°C° 0 mm 4 m/S 754 mmHg 74%
04:00 +20°C° 0 mm 3 m/S 754 mmHg 75%
05:00 +20°C° 0 mm 3 m/S 754 mmHg 77%
06:00 +22°C° 0 mm 4 m/S 754 mmHg 70%
07:00 +25°C° 0 mm 4 m/S 754 mmHg 63%
08:00 +26°C° 0 mm 5 m/S 754 mmHg 57%
09:00 +28°C° 0 mm 5 m/S 754 mmHg 51%
10:00 +29°C° 0 mm 5 m/S 754 mmHg 46%
11:00 +32°C° 0 mm 5 m/S 754 mmHg 41%
12:00 +32°C° 0 mm 5 m/S 754 mmHg 39%
13:00 +33°C° 0 mm 5 m/S 753 mmHg 38%
14:00 +33°C° 0 mm 5 m/S 753 mmHg 36%
15:00 +33°C° 0 mm 6 m/S 753 mmHg 38%
16:00 +33°C° 0 mm 6 m/S 752 mmHg 39%
17:00 +32°C° 0 mm 6 m/S 752 mmHg 41%
18:00 +30°C° 0 mm 6 m/S 752 mmHg 48%
19:00 +28°C° 0 mm 6 m/S 753 mmHg 54%
20:00 +26°C° 0 mm 6 m/S 753 mmHg 61%
21:00 +24°C° 0 mm 6 m/S 753 mmHg 62%
22:00 +23°C° 0 mm 5 m/S 753 mmHg 62%
23:00 +23°C° 0 mm 5 m/S 753 mmHg 63%

8 August, Samstag

Zeit Temperatur Niederschläge Wind Luftdruck Luftfeuchtigkeit
00:00 +22°C° 0 mm 5 m/S 753 mmHg 68%
01:00 +21°C° 0 mm 5 m/S 753 mmHg 72%
02:00 +20°C° 0 mm 5 m/S 753 mmHg 77%
03:00 +20°C° 0 mm 5 m/S 752 mmHg 80%
04:00 +19°C° 0 mm 5 m/S 752 mmHg 83%
05:00 +19°C° 0 mm 5 m/S 752 mmHg 85%
06:00 +20°C° 0 mm 5 m/S 752 mmHg 77%
07:00 +22°C° 0 mm 6 m/S 752 mmHg 68%
08:00 +23°C° 0 mm 6 m/S 752 mmHg 60%
09:00 +24°C° 0 mm 6 m/S 752 mmHg 55%
10:00 +27°C° 0 mm 7 m/S 752 mmHg 50%
11:00 +28°C° 0 mm 7 m/S 752 mmHg 45%
12:00 +28°C° 0 mm 7 m/S 752 mmHg 43%
13:00 +29°C° 0 mm 7 m/S 751 mmHg 41%
14:00 +29°C° 0 mm 7 m/S 751 mmHg 40%
15:00 +29°C° 0 mm 7 m/S 751 mmHg 41%
16:00 +29°C° 0 mm 7 m/S 750 mmHg 42%
17:00 +29°C° 0 mm 6 m/S 750 mmHg 43%
18:00 +27°C° 0 mm 6 m/S 750 mmHg 47%
19:00 +26°C° 0 mm 6 m/S 750 mmHg 51%
20:00 +24°C° 0 mm 6 m/S 750 mmHg 54%
21:00 +23°C° 0 mm 5 m/S 750 mmHg 58%
22:00 +22°C° 0 mm 5 m/S 750 mmHg 63%
23:00 +21°C° 0 mm 4 m/S 750 mmHg 67%

9 August, Sonntag

Zeit Temperatur Niederschläge Wind Luftdruck Luftfeuchtigkeit
00:00 +20°C° 0 mm 4 m/S 750 mmHg 69%
01:00 +19°C° 0 mm 4 m/S 750 mmHg 72%
02:00 +19°C° 0 mm 4 m/S 750 mmHg 75%
03:00 +18°C° 0 mm 4 m/S 750 mmHg 76%
04:00 +18°C° 0 mm 4 m/S 750 mmHg 78%
05:00 +17°C° 0 mm 4 m/S 750 mmHg 80%
06:00 +19°C° 0 mm 4 m/S 750 mmHg 73%
07:00 +21°C° 0 mm 5 m/S 750 mmHg 65%
08:00 +23°C° 0 mm 5 m/S 750 mmHg 57%
09:00 +25°C° 0 mm 5 m/S 750 mmHg 51%
10:00 +27°C° 0 mm 5 m/S 750 mmHg 45%
11:00 +28°C° 0 mm 5 m/S 750 mmHg 40%
12:00 +28°C° 0 mm 5 m/S 749 mmHg 37%
13:00 +29°C° 0 mm 5 m/S 749 mmHg 35%
14:00 +29°C° 0 mm 5 m/S 748 mmHg 33%
15:00 +29°C° 0 mm 5 m/S 748 mmHg 33%
16:00 +29°C° 0 mm 5 m/S 748 mmHg 34%
17:00 +28°C° 0 mm 5 m/S 748 mmHg 34%
18:00 +26°C° 0 mm 5 m/S 748 mmHg 39%
19:00 +25°C° 0 mm 4 m/S 748 mmHg 43%
20:00 +22°C° 0 mm 3 m/S 749 mmHg 47%
21:00 +21°C° 0 mm 3 m/S 749 mmHg 50%
22:00 +20°C° 0 mm 3 m/S 749 mmHg 53%
23:00 +19°C° 0 mm 3 m/S 749 mmHg 56%

10 August, Montag

Zeit Temperatur Niederschläge Wind Luftdruck Luftfeuchtigkeit
00:00 +19°C° 0 mm 3 m/S 749 mmHg 58%
01:00 +18°C° 0 mm 3 m/S 749 mmHg 60%
02:00 +18°C° 0 mm 2 m/S 749 mmHg 63%
03:00 +17°C° 0 mm 2 m/S 749 mmHg 65%
04:00 +17°C° 0 mm 2 m/S 749 mmHg 67%
05:00 +17°C° 0 mm 2 m/S 749 mmHg 69%
06:00 +19°C° 0 mm 2 m/S 749 mmHg 62%
07:00 +21°C° 0 mm 2 m/S 749 mmHg 55%
08:00 +25°C° 0 mm 2 m/S 749 mmHg 48%
09:00 +26°C° 0 mm 2 m/S 749 mmHg 44%
10:00 +27°C° 0 mm 3 m/S 749 mmHg 41%
11:00 +28°C° 0 mm 3 m/S 749 mmHg 37%
12:00 +29°C° 0 mm 3 m/S 749 mmHg 37%
13:00 +29°C° 0 mm 3 m/S 749 mmHg 36%
14:00 +29°C° 0 mm 3 m/S 748 mmHg 36%
15:00 +29°C° 0 mm 2 m/S 748 mmHg 36%
16:00 +29°C° 0 mm 2 m/S 748 mmHg 37%
17:00 +29°C° 0 mm 2 m/S 748 mmHg 37%
18:00 +28°C° 0 mm 2 m/S 748 mmHg 41%
19:00 +27°C° 0 mm 2 m/S 748 mmHg 44%
20:00 +25°C° 0 mm 2 m/S 749 mmHg 48%
21:00 +24°C° 0 mm 2 m/S 749 mmHg 53%
22:00 +23°C° 0 mm 2 m/S 749 mmHg 58%
23:00 +21°C° 0 mm 2 m/S 749 mmHg 63%
Mehr zeigen